DECAYED
Showing default

SATELIOT_0, 56183 (Decayed)

Orbit data source: Space-Track

SATELIOT_0, 56183 was a payload satellite owned by Sateliot (BG) in LEO that was launched on Sat, 15 Apr 2023 UTC via an FALCON 9 launch vehicle from the Air Force Western Test Range (AFWTR). Payload-class satellites include a variety of spacecraft equipped with specific instruments for various scientific and technological missions. These include communications satellites like Starlink; space stations such as the ISS; scientific satellites like the Hubble; Earth observation satellites from companies like Planet Labs, Umbra, and HawkEye 360; GPS; miniature CubeSats for education and research; and military/defense satellites.

Not visible in the next 10 days
Identifier
56183, 2023-054F
Orbit
Decayed
Country
Flag of BGBG / BGR
Related business
Manufacturer
Endurosat
Mission
Decayed Commercial Technology
Bus & Motor
CUBESAT 6U, Unknown motor
Mass
7.407 kg wet, 7.407 kg dry
Launch date (UTC)
2023-04-15 (3 years ago)
Launch vehicle
FALCON 9
Launch site
Air Force Western Test Range (AFWTR)
Object type
Payload
Rocket body
Debris
Shape & HBR
Box + 2 Pan, 0.2 m
Radar Cross Section
0.092 m², Medium (>0.1 m² and < 1m²)

Expand to show TLE details & history
Last TLE update: 4 months ago

TLE from 4 months ago
0 SATELIOT_0
1 56183U 23054F   25203.21886941  .10262237  25659-5  21532-3 0  9999
2 56183  97.2739 116.4829 0009782 222.5274 137.5272 16.46284431128291
Epoch: 2025-07-22T05:15Z
TLE epoch observation values (Epoch: 2025-07-22T05:15:10.317Z)
Latitude
-0.00003°
Longitude
97.47385°
Altitude
157.115 km
Speed
7.809 km/s
True Right ascension
07h 45m 55s
True Declination
0° 00' 00"
Sunlit
Object was in daylight at epoch
Visualization orbit readout
Latitude
Unknown
Longitude
Unknown
Altitude
Unknown
Speed
Unknown
Apparent Right ascension
Unknown
Apparent Declination
Unknown
Sunlit
N/A
Visualization observer readout
Local Sidereal Time
14:01:03
Azimuth
Unknown
Elevation
Unknown
Doppler factor
Unknown
Orbital elements
Apogee altitude
152.314 km
Perigee altitude
139.55 km
Semi-major axis
6,524.069 km
Eccentricity
0.00098
Inclination
97.2739°
RAAN
116.4829°
Arg. of periapsis
222.5274°
True anomaly
137.60282°
Mean anomaly
137.5272°
Eccentric anomaly
137.56502°
Mean motion
4.11875 °/min
Orbital period
87.41 mins
BSTAR
0.00021532
Loading maneuver chart data...
Computing Atmospheric mass density...
Loading historical data...
Loading historical data...
Loading historical data...
Loading historical data...
Loading historical data...
Loading historical data...
Loading historical data...

Documentation

Showing up to 5 results
|